619  
ASUS44 KSJT 072315  
RWRSJT  
WEST CENTRAL TEXAS REGIONAL WEATHER ROUNDUP  
NATIONAL WEATHER SERVICE SAN ANGELO TX  
600 PM CDT TUE JUL 07 2020  
 
NOTE: "FAIR" INDICATES FEW OR NO CLOUDS BELOW 12,000 FEET WITH NO  
SIGNIFICANT WEATHER AND/OR S TO VISIBILITY
.  
 
TXZ049-054-064>066-071>073-076>078-098-099-113-114-127-128-139-140-  
154-155-168>170-080000   
..LOCATIONS ACROSS WEST CENTRAL TEXAS
 
 
 
CITY SKY/WX TMP DP RH WIND PRES REMARKS
 
SAN ANGELO LGT RAIN 73 69 87 W6 29.91F  
ABILENE CLOUDY 89 72 56 SE16 29.93R  
DYESS AFB NOT AVBL  
JUNCTION PTSUNNY 97 66 36 S6 29.91S THUNDER  
SWEETWATER PTSUNNY 91 65 41 SE12G18 29.95  
BROWNWOOD CLOUDY 77 73 88 SW9 29.94R  
COLEMAN CLOUDY 75 71 85 CALM 29.95F  
SONORA CLOUDY 81 61 50 CALM 29.99F  
OZONA LGT RAIN 72 66 83 S12 29.96F  
BRADY TSTM 70 68 94 NW18 29.98R VSB 3/4  

 
 
TEXAS PANHANDLE/OKLAHOMA PANHANDLE  
 
CITY SKY/WX TMP DP RH WIND PRES REMARKS
 
AMARILLO SUNNY 88 56 33 E16G22 29.97F  
BORGER SUNNY 96 56 26 SE10G22 29.95F  
CANADIAN MOSUNNY 91 62 37 SE12G18 29.92F  
DALHART MOSUNNY 92 57 30 SE17G24 29.98F  
DUMAS CLEAR 89 59 36 E13 29.98S  
GUYMON NOT AVBL  
HEREFORD PTCLDY 94 53 24 MISG 30.00S  
PAMPA CLEAR 93 54 26 SE7 29.98F  
PERRYTON SUNNY 92 53 26 S10G17 29.94F  

 
 
SOUTHERN PANHANDLE/SOUTH PLAINS/ROLLING PLAINS  
 
CITY SKY/WX TMP DP RH WIND PRES REMARKS
 
LUBBOCK MOSUNNY 92 60 34 E9 29.97F  
SNYDER PTSUNNY 93 64 37 E12 29.93F  
CHILDRESS SUNNY 90 64 42 SE9 29.93F  
SEMINOLE CLEAR 94 56 27 SE7 30.01S  

 
 
PERMIAN BASIN  
 
CITY SKY/WX TMP DP RH WIND PRES REMARKS
 
MIDLAND SUNNY 97 53 22 E13 29.92F  
ODESSA MOSUNNY 97 52 21 CALM 29.94S  
WINK PTSUNNY 102 53 19 E13 29.88F  

 
 
FAR WEST/SOUTHWEST MOUNTAINS/TRANS PECOS  
 
CITY SKY/WX TMP DP RH WIND PRES REMARKS
 
ALPINE CLOUDY 82 54 37 S5 30.11F  
DRYDEN N/A 100 60 26 E14 29.89F  
EL PASO MOSUNNY 101 46 15 SW6 29.94F  
FORT STOCKTON PTSUNNY 95 60 31 S16G23 29.92S  
GUADALUPE PASS MOSUNNY N/A N/A N/A N24G33 30.12  
MARFA PTSUNNY 81 60 48 E10 30.10F  
PECOS PTCLDY 101 52 19 NE5 29.88S  

 
 
DALLAS/FORT WORTH METROPLEX  
 
CITY SKY/WX TMP DP RH WIND PRES REMARKS
 
DFW AIRPORT PTSUNNY 89 75 63 E7 29.87R  
FTW MEACHAM SUNNY 87 73 62 SW5 29.88R  
DAL-EXECUTIVE MOSUNNY 88 71 57 S6 29.89R  
GRAND PRAIRIE SUNNY 88 72 58 CALM 29.90R  
ADDISON MOSUNNY 88 70 55 E7 29.89S  
MESQUITE PTCLDY 86 73 66 SE5 29.91R  
LANCASTER PTCLDY 87 74 65 SE8 29.91S  

 
 
NORTH CENTRAL TEXAS  
 
CITY SKY/WX TMP DP RH WIND PRES REMARKS
 
SHRMAN/DENISON PTCLDY 88 73 62 E3 29.91S  
GAINESVILLE PTSUNNY 87 72 59 SE6 29.91F  
BRIDGEPORT CLEAR 90 70 51 SE3 29.90  
DENTON SUNNY 90 72 55 VRB5 29.88S  
WAXAHACHIE N/A 86 74 67 SE5 29.91S  
GRANBURY PTCLDY 89 71 56 SE8 29.90S  

 
 
WESTERN NORTH TEXAS  
 
CITY SKY/WX TMP DP RH WIND PRES REMARKS
 
WICHITA FALLS PTSUNNY 86 72 62 E7 29.89F  
VERNON PTCLDY 89 70 53 SE9 29.91  
BRECKENRIDGE MOCLDY 89 71 56 S8 29.90F  
COMANCHE PTSUNNY 81 75 83 SE3 29.93S  

 
 
CENTRAL AND SOUTH CENTRAL TEXAS  
 
CITY SKY/WX TMP DP RH WIND PRES REMARKS
 
AUSTIN/BERGSTM PTSUNNY 94 71 47 SE8 29.87S  
WACO PTSUNNY 81 74 79 E9 29.91R  
HILLSBORO MOCLDY 84 76 75 CALM 29.91R  
TEMPLE PTSUNNY 90 70 51 SE10 29.90R  
KILLEEN-GRAY NOT AVBL  
FORT HOOD NOT AVBL  
GEORGETOWN CLOUDY 86 74 67 E6 29.91S  
LAGO VISTA FAIR 83 73 72 E6 29.92F  
SAN MARCOS MOSUNNY 95 70 44 SE16 29.87S  
NEW BRAUNFELS PTSUNNY 97 67 37 SE18 29.86R  
RANDOLPH AFB NOT AVBL  
SAN ANTONIO PTSUNNY 96 68 39 SE14G22 29.87R  
STINSON MOSUNNY 95 69 42 SE15G21 29.83S  
PLEASANTON NOT AVBL  
LA GRANGE PTSUNNY 96 70 43 S9 29.86F  
GIDDINGS CLOUDY 97 71 41 SE6 29.88F  

 
 
EAST TEXAS  
 
CITY SKY/WX TMP DP RH WIND PRES REMARKS
 
PARIS PTSUNNY 87 74 64 SE13 29.91S  
CLARKSVILLE NOT AVBL  
TYLER PTSUNNY 81 75 82 SE6 29.93S  
LONGVIEW PTSUNNY 83 72 69 S8 29.92S  
PALESTINE NOT AVBL  
NACOGDOCHES LGT RAIN 79 73 83 S6 29.93F  

 
 
TEXAS HILL COUNTRY AND EDWARDS PLATEAU  
 
CITY SKY/WX TMP DP RH WIND PRES REMARKS
 
LLANO MOCLDY 88 73 62 E9 29.92S  
HORSESHOE BAY NOT AVBL  
KERRVILLE PTSUNNY 92 66 42 S10 29.90F  
FREDERICKSBRG MOSUNNY 86 67 52 E7 29.92R  
ROCKSPRINGS PTCLDY 91 64 40 VRB6G12 29.98F  
HONDO MOSUNNY 98 68 37 S8 29.85S  
UVALDE N/A 99 66 34 SE6 29.84F  
DEL RIO SUNNY 103 65 29 SE13 29.79F  

 
 
SOUTHEAST TEXAS  
 
CITY SKY/WX TMP DP RH WIND PRES REMARKS
 
COLLEGE STN CLOUDY 84 75 74 E5 29.88F  
CALDWELL CLOUDY 87 75 65 E6 29.89F  
CROCKETT NOT AVBL  
BRENHAM CLOUDY 81 76 86 E3 29.90F  
HUNTSVILLE CLOUDY 77 71 82 VRB3 29.91F  
CONROE CLOUDY 75 74 96 SE5 29.91F  
HOUSTON BUSH CLOUDY 82 74 76 NE8 29.92F  
HOUSTON HOBBY CLOUDY 91 72 53 S13 29.91F  
PERLAND PTSUNNY 92 70 48 S8G17 29.93F  
WHARTON PTCLDY 91 66 43 S10 29.92F  

 
 
THE UPPER TEXAS COAST  
 
CITY SKY/WX TMP DP RH WIND PRES REMARKS
 
ORANGE MOCLDY 88 75 66 S8 29.97R  
PORT ARTHUR PTSUNNY 86 77 74 S10G17 29.94F  
GALVESTON PTSUNNY 89 79 72 S9 29.94F  
ANGLETON MOSUNNY 88 75 65 S12 29.92F  
BAY CITY NOT AVBL  

 
 
TEXAS COASTAL BEND, RIO GRANDE PLAINS DEEP SOUTH TEXAS  
 
CITY SKY/WX TMP DP RH WIND PRES REMARKS
 
VICTORIA MOSUNNY 92 73 53 SE17 29.89S  
BEEVILLE FAIR 93 79 65 SE14 29.85F  
ROCKPORT MOSUNNY 88 77 69 SE17G25 29.87S  
PORT ARANSAS PTCLDY 87 79 77 SE13 29.88F  
PORT LAVACA NOT AVBL  
CORPUS CHRISTI MOSUNNY 89 77 67 SE17G25 29.85F  
KINGSVILLE NAS PTSUNNY 94 75 54 SE16 29.83F  
COTULLA MOSUNNY 102 70 35 SE16 29.79F  
LAREDO PTSUNNY 102 70 35 SE14 29.78F  
BROWNSVILLE MOSUNNY 90 77 65 S21G30 29.84F  
PORT ISABEL MOSUNNY 91 77 63 SE22G29 29.84F  
HEBBRONVILLE MOCLDY 98 66 34 SE15G22 29.82F  
MCALLEN SUNNY 96 72 45 SE17G28 29.82F  
WESLACO NOT AVBL  
FALFURRIAS NOT AVBL  
EDINBURG PTCLDY 96 68 39 S15G23 29.81F  

 
 
 
CLICK HERE TO GO TO PREVIOUS BULLETINS.

The Nexlab TX Page Main Text Page